Location: Borealis Mine
(38.3824°N, 118.7610°W)
Time: 17:51:16
(UTC+00:00)

Cosmos 1777 Rocket - Pass Details

Date: 18 September 2020
Orbit: 759 x 775 km, 74.0° (Epoch: 19 October)

Event Time Altitude Azimuth Distance (km) Brightness Sun altitude
Rises 12:03:45 0° 332° (NNW) 3,236 7.1 -19.3°
Reaches altitude 10° 12:06:17 10° 324° (NW) 2,303 6.3 -18.8°
Maximum altitude 12:11:02 37° 259° (W) 1,176 4.4 -17.9°
Drops below altitude 10° 12:15:45 10° 193° (SSW) 2,282 6.2 -17.0°
Sets 12:18:15 0° 185° (S) 3,202 7.0 -16.6°
